Location: Fernhill
(41.0167°S, 175.6333°E)
Time: 09:48:48
(UTC+00:00)

Cosmos 2263 - Pass Details

Date: 08 November 2025
Orbit: 828 x 865 km, 70.9° (Epoch: 12 December)

Event Time Altitude Azimuth Distance (km) Brightness Sun altitude
Rises 07:31:49 0° 204° (SSW) 3,408 8.3 -5.2°
Reaches altitude 10° 07:34:17 10° 202° (SSW) 2,466 7.5 -5.6°
Maximum altitude 07:39:57 83° 114° (ESE) 850 4.2 -6.5°
Drops below altitude 10° 07:45:34 10° 25° (NNE) 2,441 6.1 -7.4°
Enters shadow 07:47:15 - 24° (NNE) 3,087 6.6 -7.7°
